Location: Altmatt
(47.1333°N, 8.7000°E)
Time: 08:37:37
(UTC+00:00)

Cosmos 1766 Rocket - Pass Details

Date: 13 July 2020
Orbit: 606 x 632 km, 82.5° (Epoch: 04 August)

Event Time Altitude Azimuth Distance (km) Brightness Sun altitude
Exits shadow 21:46:45 33° 173° (S) 1,045 4.2 -17.3°
Maximum altitude 21:48:39 72° 97° (E) 657 3.5 -17.4°
Drops below altitude 10° 21:53:06 10° 13° (NNE) 2,011 7.0 -17.8°
Sets 21:55:21 0° 12° (NNE) 2,927 7.9 -17.9°
